W5CGC Weather Reports


time (UTC)temp
C
wind
direction
speed
KPH
gust
KPH
rain 1hr
cm
rain 24hr
cm
rain mn
cm
humidity
%
barometer
mb
20260905054540 30 41 1.6 9.7 0.00 0.00 0.00 46 1013.1
20260905053045 30 94 1.6 8.0 0.00 0.00 0.00 45 1012.8
20260905051545 30 324 0.0 8.0 0.00 0.00 0.00 45 1012.8
20260905050046 30 70 1.6 4.8 0.00 0.00 0.00 44 1012.8
20260905044544 30 39 0.0 6.4 0.00 0.00 0.00 44 1012.8
20260905043041 31 24 0.0 8.0 0.00 0.00 0.00 43 1012.7
20260905041538 31 11 1.6 11.3 0.00 0.00 0.00 42 1012.7
20260905040049 31 34 3.2 9.7 0.00 0.00 0.00 41 1012.8
20260905034545 31 46 1.6 8.0 0.00 0.00 0.00 40 1012.8
20260905033041 31 41 0.0 4.8 0.00 0.00 0.00 38 1012.8
20260905031538 31 245 1.6 6.4 0.00 0.00 0.00 37 1012.6
20260905030057 31 18 0.0 3.2 0.00 0.00 0.00 37 1012.7
20260905024541 31 115 0.0 3.2 0.00 0.00 0.00 39 1012.4
20260905023047 31 0 0.0 0.0 0.00 0.00 0.00 38 1012.3
20260905021541 32 0 0.0 0.0 0.00 0.00 0.00 37 1011.9
20260905020057 32 0 0.0 1.6 0.00 0.00 0.00 36 1011.7
20260905014544 33 0 1.6 8.0 0.00 0.00 0.00 35 1011.4
20260905013042 33 235 0.0 4.8 0.00 0.00 0.00 35 1011.2
20260905011541 33 0 1.6 11.3 0.00 0.00 0.00 35 1011.2
20260905010048 33 233 0.0 3.2 0.00 0.00 0.00 35 1010.9
20260905004603 34 244 1.6 6.4 0.00 0.00 0.00 34 1010.6
20260905003038 35 271 1.6 6.4 0.00 0.00 0.00 31 1010.5
20260905001544 35 28 0.0 14.5 0.00 0.00 0.00 31 1010.4
20260905000043 35 37 0.0 6.4 0.00 0.00 0.00 30 1010.2
20260904234542 35 23 1.6 8.0 0.00 0.00 0.00 28 1010.3
20260904233051 36 37 3.2 9.7 0.00 0.00 0.00 27 1010.3
20260904231544 36 30 1.6 8.0 0.00 0.00 0.00 27 1010.4
20260904230043 36 221 0.0 8.0 0.00 0.00 0.00 27 1010.3
20260904224549 36 287 3.2 9.7 0.00 0.00 0.00 27 1010.6
20260904223040 36 46 0.0 8.0 0.00 0.00 0.00 28 1010.5
20260904221540 36 227 3.2 8.0 0.00 0.00 0.00 27 1010.7
20260904220044 37 49 0.0 9.7 0.00 0.00 0.00 27 1010.6
20260904214541 37 246 0.0 4.8 0.00 0.00 0.00 27 1010.8
20260904213041 37 299 3.2 9.7 0.00 0.00 0.00 26 1011.0
20260904211545 37 59 1.6 9.7 0.00 0.00 0.00 26 1011.1
20260904210049 37 293 4.8 11.3 0.00 0.00 0.00 26 1011.4
20260904204545 37 26 1.6 9.7 0.00 0.00 0.00 26 1011.5
20260904203043 37 14 3.2 17.7 0.00 0.00 0.00 27 1011.7
20260904201539 37 27 3.2 16.1 0.00 0.00 0.00 28 1012.0
20260904200041 36 34 3.2 11.3 0.00 0.00 0.00 29 1012.3
20260904194543 36 60 3.2 19.3 0.00 0.00 0.00 30 1012.4
20260904193122 36 50 3.2 9.7 0.00 0.00 0.00 31 1012.5
20260904191538 36 11 1.6 11.3 0.00 0.00 0.00 32 1012.7
20260904190040 36 20 3.2 16.1 0.00 0.00 0.00 31 1012.9
20260904184542 36 88 1.6 4.8 0.00 0.00 0.00 32 1013.1
20260904183047 35 284 4.8 17.7 0.00 0.00 0.00 33 1013.4
20260904181546 35 360 3.2 16.1 0.00 0.00 0.00 33 1013.6
20260904180040 35 36 3.2 12.9 0.00 0.00 0.00 33 1013.8
20260904174552 34 42 3.2 14.5 0.00 0.00 0.00 34 1013.8
20260904173043 33 44 3.2 9.7 0.00 0.00 0.00 37 1014.0
20260904171555 33 297 3.2 12.9 0.00 0.00 0.00 38 1014.1
20260904170041 33 131 1.6 4.8 0.00 0.00 0.00 39 1014.3
20260904164548 32 46 1.6 8.0 0.00 0.00 0.00 42 1014.5
20260904163040 32 0 1.6 6.4 0.00 0.00 0.00 45 1014.5
20260904161538 31 115 1.6 12.9 0.00 0.00 0.00 47 1014.5
20260904160042 30 176 1.6 8.0 0.00 0.00 0.00 51 1014.5
20260904154541 30 300 1.6 9.7 0.00 0.00 0.00 53 1014.4
20260904153040 29 0 1.6 9.7 0.00 0.00 0.00 56 1014.4
20260904151543 28 148 0.0 8.0 0.00 0.00 0.00 59 1014.4
20260904150041 28 18 1.6 11.3 0.00 0.00 0.00 61 1014.5
20260904144541 27 70 1.6 11.3 0.00 0.00 0.00 63 1014.5
20260904143045 27 36 1.6 9.7 0.00 0.00 0.00 64 1014.4
20260904141542 27 225 1.6 9.7 0.00 0.00 0.00 65 1014.4
20260904140038 26 0 3.2 8.0 0.00 0.00 0.00 66 1014.3
20260904134546 26 0 0.0 1.6 0.00 0.00 0.00 66 1014.2
20260904133041 26 0 1.6 4.8 0.00 0.00 0.00 67 1014.1
20260904131554 26 0 0.0 1.6 0.00 0.00 0.00 67 1014.0
20260904130042 26 0 0.0 6.4 0.00 0.00 0.00 67 1013.7
20260904124538 25 46 0.0 6.4 0.00 0.00 0.00 68 1013.7
20260904123041 25 64 0.0 8.0 0.00 0.00 0.00 68 1013.6
20260904121540 25 0 0.0 1.6 0.00 0.00 0.00 67 1013.6
20260904120048 25 0 0.0 4.8 0.00 0.00 0.00 67 1013.4
20260904114537 25 0 0.0 0.0 0.00 0.00 0.00 67 1013.3
20260904113041 26 0 0.0 0.0 0.00 0.00 0.00 66 1013.3
20260904111544 26 0 0.0 0.0 0.00 0.00 0.00 66 1013.2
20260904110040 26 0 0.0 6.4 0.00 0.00 0.00 66 1013.1
20260904104547 26 0 0.0 3.2 0.00 0.00 0.00 66 1013.0
20260904103050 26 0 0.0 11.3 0.00 0.00 0.00 66 1013.0
20260904101541 26 0 0.0 4.8 0.00 0.00 0.00 66 1012.8
20260904100042 26 0 0.0 8.0 0.00 0.00 0.00 66 1012.6
20260904094541 26 86 0.0 4.8 0.00 0.00 0.00 65 1012.6
20260904093045 26 43 0.0 6.4 0.00 0.00 0.00 65 1012.7
20260904091544 26 0 0.0 6.4 0.00 0.00 0.00 65 1012.7
20260904090042 26 146 0.0 3.2 0.00 0.00 0.00 64 1012.7
20260904084539 26 59 0.0 3.2 0.00 0.00 0.00 64 1012.6
20260904083103 26 79 0.0 3.2 0.00 0.00 0.00 64 1012.6
20260904081543 26 0 0.0 4.8 0.00 0.00 0.00 63 1012.7
20260904080043 26 0 0.0 6.4 0.00 0.00 0.00 63 1012.5
20260904074559 26 65 0.0 3.2 0.00 0.00 0.00 62 1012.7
20260904073040 26 0 0.0 4.8 0.00 0.00 0.00 62 1012.7
20260904071544 26 34 0.0 8.0 0.00 0.00 0.00 61 1012.8
20260904070042 26 0 1.6 8.0 0.00 0.00 0.00 61 1012.8
20260904064541 26 89 1.6 9.7 0.00 0.00 0.00 60 1012.9
20260904063047 26 44 1.6 14.5 0.00 0.00 0.00 60 1013.0
20260904061541 26 39 1.6 6.4 0.00 0.00 0.00 59 1013.1
20260904060041 26 37 0.0 9.7 0.00 0.00 0.00 58 1013.2